[[{"header":{"parameterUnit":"m.s-1","parameterCategory":1,"la1":30.2991,"la2":30.254,"lo1":-89.0895,"lo2":-89.0444,"dy":0.0017,"dx":0.0017,"nx":28,"ny":28,"refTime":"2024-07-13T03:00:00:Z","depth":0,"parameterNumber":2,"parameterNumberName":"U-component_of_WINDS"},"data":[0,0,0,0,0,0,0,0,0,0,0,0,0,0,0,0,0,0,0,0,0,0,0,0,0,0,0,0,0,0,0,0,0,0,0,0,0,0,0,0,0,0,0,0,0,0,0,0,0,0,0,0,0,0,0,0,0,0,1.8421,1.8423,0,1.8545,1.8547,1.8548,1.8555,1.8553,1.8552,1.855,1.8678,1.8682,1.8687,0,0,0,0,0,0,0,0,0,0,0,0,0,1.8191,1.8195,1.8421,1.8423,1.8424,1.8545,1.8547,1.8548,1.8555,1.8553,1.8551,1.855,1.8676,1.8682,1.8688,0,0,0,0,0,0,0,0,0,0,0,0,0,1.83,1.8196,1.8421,1.8442,1.8445,1.8545,1.8547,1.8549,1.8555,1.8553,1.8551,1.8549,1.8674,1.8681,1.8688,1.8775,0,0,1.871,1.8713,0,0,0,0,0,0,0,0,1.8294,1.8309,1.8438,1.8441,1.8445,1.8532,1.8512,1.8625,1.8556,1.8514,1.855,1.8548,1.8631,1.8642,1.867,1.8781,1.8786,1.8711,1.8715,1.8718,1.872,0,0,0,0,0,0,0,1.8286,1.8303,1.847,1.8439,1.8444,1.8445,1.8459,1.8533,1.8583,1.8517,1.8518,1.8532,1.8633,1.8663,1.8673,1.8788,1.871,1.8717,1.8721,1.8724,1.8976,1.8978,0,0,0,0,0,0,1.8275,1.8297,1.8466,1.8474,1.8362,1.8451,1.8466,1.8506,1.8582,1.8592,1.8534,1.8532,1.8652,1.8664,1.8677,1.8782,1.8718,1.8725,1.8729,1.8973,1.8976,1.8979,0,0,0,0,0,0,1.827,1.829,1.8461,1.8386,1.8408,1.8458,1.8503,1.851,1.854,1.8595,1.8604,1.8556,1.8651,1.8667,1.875,1.8787,1.8728,1.8734,1.897,1.8974,1.8977,1.8994,0,0,0,0,0,0,1.8263,1.8288,1.8321,1.8386,1.8412,1.8532,1.8505,1.8514,1.8552,1.8551,1.8618,1.8627,1.865,1.874,1.8757,1.8796,1.874,1.8967,1.8972,1.8976,1.8991,1.8998,1.9004,0,0,0,0,0,1.8255,1.8321,1.8323,1.8343,1.8455,1.8534,1.8549,1.8574,1.8555,1.8589,1.8624,1.8624,1.878,1.8748,1.8768,1.8809,1.8965,1.8971,1.8976,1.8988,1.8997,1.9004,0,0,0,0,0,0,1.8259,1.833,1.8333,1.8423,1.8472,1.8535,1.8579,1.8583,1.864,1.8636,1.8666,1.8681,1.8763,1.8795,1.8757,1.8896,1.887,1.888,1.8872,1.8882,1.8888,1.8878,1.8746,0,0,0,0,0,1.8271,1.833,1.8389,1.8462,1.8487,1.8529,1.8564,1.858,1.8633,1.8654,1.8695,1.8747,1.8807,1.8846,1.8905,1.8996,1.901,1.9034,1.904,1.9046,1.9054,1.9103,1.9114,1.8997,1.8997,1.8997,0,0,1.8295,1.8341,1.8377,1.8464,1.8505,1.8565,1.8546,1.8611,1.8656,1.8664,1.8744,1.8776,1.8836,1.8922,1.8963,1.8951,1.9089,1.9053,1.9057,1.9062,1.9109,1.912,1.913,1.9001,1.9,1.8999,0,0,1.837,1.8411,1.8476,1.8517,1.8578,1.8605,1.8621,1.8684,1.8705,1.8786,1.8793,1.8847,1.8951,1.8993,1.9027,1.9117,1.9119,1.9136,1.9171,1.9219,1.9228,1.9236,1.9267,1.9278,1.9144,1.9144,1.9144,0,1.8392,1.8483,1.8509,1.8574,1.8611,1.8621,1.8687,1.8726,1.8803,1.8829,1.8815,1.8945,1.8986,1.9082,1.9103,1.9132,1.915,1.9128,1.9224,1.9233,1.9241,1.9271,1.9283,1.9145,1.9145,1.9145,1.9145,0,1.8507,1.857,1.8615,1.8689,1.8732,1.8797,1.8833,1.8873,1.8885,1.8914,1.8996,1.9045,1.9113,1.9138,1.915,1.9235,1.9226,1.9218,1.9193,1.9253,1.9282,1.9293,1.9147,1.9147,1.9146,1.9146,0,0,1.8587,1.8675,1.8691,1.8724,1.8792,1.8841,1.8906,1.8973,1.9007,1.906,1.9115,1.9202,1.9195,1.9234,1.9251,1.9293,1.936,1.928,1.9282,1.9292,1.9456,1.946,1.9473,1.9362,1.9364,1.9366,1.945,0,1.8668,1.8784,1.8809,1.8909,1.8967,1.8977,1.9034,1.9081,1.911,1.9163,1.9195,1.9256,1.9242,1.9266,1.9308,1.9343,1.9393,1.9337,1.9413,1.9415,1.9396,1.9488,1.9494,1.957,1.9462,1.9464,1.9465,0,1.8778,1.8833,1.8938,1.8998,1.9023,1.9074,1.9136,1.9187,1.9242,1.926,1.9303,1.9316,1.9384,1.9356,1.9449,1.941,1.9443,1.9465,1.9468,1.9475,1.9443,1.9496,1.9596,1.9607,1.9483,1.9482,1.948,0,1.8824,1.8925,1.9,1.9029,1.9101,1.9136,1.9168,1.922,1.9258,1.9313,1.9338,1.94,1.9434,1.9482,1.9511,1.9488,1.9602,1.9576,1.9618,1.9617,1.964,1.9638,1.9745,1.9664,1.9663,1.9663,1.9663,0,1.8911,1.8974,1.9022,1.9068,1.914,1.9169,1.9239,1.927,1.9317,1.9369,1.9383,1.9432,1.9467,1.9521,1.9545,1.9618,1.9634,1.9649,1.9654,1.9647,1.9645,1.9668,1.9663,1.9666,1.9666,1.9665,1.9664,0,1.8974,1.9009,1.9091,1.9153,1.917,1.922,1.9272,1.9318,1.9346,1.9413,1.943,1.9475,1.9539,1.9573,1.9654,1.9669,1.9751,1.9754,1.9732,1.9734,1.9773,1.9769,1.9898,1.9915,1.9823,1.9824,1.9825,0,1.9026,1.9076,1.9142,1.9178,1.9211,1.9269,1.9308,1.9338,1.9378,1.9443,1.9481,1.9545,1.9599,1.9701,1.9741,1.9802,1.9806,1.9847,1.9815,1.9806,1.9805,1.9801,1.9806,1.9852,1.9853,1.9853,1.9854,0,1.9115,1.913,1.9185,1.9247,1.9293,1.9343,1.9392,1.9421,1.946,1.9504,1.9569,1.9611,1.9692,1.9756,1.9821,1.9853,1.986,1.9864,1.9876,1.9869,1.9854,1.9861,1.9746,1.986,1.986,1.9859,1.9859,1.9859,1.9174,1.9218,1.9271,1.9333,1.9373,1.9419,1.9464,1.9498,1.9554,1.9622,1.9637,1.9706,1.9759,1.9846,1.9881,1.9935,1.9926,1.9945,1.995,1.9953,1.9954,1.9846,1.9947,1.9947,1.9947,1.9947,1.9946,0,1.9262,1.9298,1.9354,1.9422,1.947,1.9473,1.9527,1.9567,1.9628,1.9676,1.9728,1.9803,1.9865,1.991,1.9973,2.0008,2.0013,2.0024,2.0021,2.0028,1.9959,1.9941,2.0019,2.0019,2.0019,2.0019,2.0019,2.0019,1.9314,1.9388,1.9409,1.9503,1.9537,1.9605,1.9636,1.9678,1.9717,1.98,1.9851,1.988,1.9927,1.9994,2.0051,2.0062,2.0084,2.0095,2.0106,2.0041,2.0033,2.0026,2.0009,2.01,2.01,2.0171,2.0172,2.0172]},{"header":{"parameterUnit":"m.s-1","parameterCategory":1,"la1":30.2991,"la2":30.254,"lo1":-89.0895,"lo2":-89.0444,"dy":0.0017,"dx":0.0017,"nx":28,"ny":28,"refTime":"2024-07-13T03:00:00:Z","depth":0,"parameterNumber":3,"parameterNumberName":"V-component_of_WINDS"},"data":[0,0,0,0,0,0,0,0,0,0,0,0,0,0,0,0,0,0,0,0,0,0,0,0,0,0,0,0,0,0,0,0,0,0,0,0,0,0,0,0,0,0,0,0,0,0,0,0,0,0,0,0,0,0,0,0,0,0,5.0574,5.0574,0,5.0582,5.0582,5.0582,5.049,5.0487,5.0485,5.0482,5.0488,5.0491,5.0493,0,0,0,0,0,0,0,0,0,0,0,0,0,5.0477,5.0479,5.0574,5.0574,5.0574,5.0582,5.0582,5.0582,5.049,5.0487,5.0484,5.0481,5.0487,5.049,5.0493,0,0,0,0,0,0,0,0,0,0,0,0,0,5.0505,5.048,5.0574,5.0529,5.0525,5.0582,5.0582,5.0582,5.0491,5.0487,5.0483,5.048,5.0487,5.049,5.0494,5.0593,0,0,5.0505,5.0507,0,0,0,0,0,0,0,0,5.0504,5.0509,5.0536,5.0532,5.0528,5.0531,5.055,5.0586,5.0492,5.0504,5.0482,5.0478,5.0505,5.0507,5.0517,5.0593,5.0593,5.0506,5.0508,5.051,5.0511,0,0,0,0,0,0,0,5.0502,5.0508,5.0577,5.0536,5.0532,5.0508,5.0508,5.0556,5.0526,5.0502,5.0496,5.0498,5.0503,5.0514,5.0517,5.0593,5.0506,5.0509,5.0511,5.0513,5.075,5.0754,0,0,0,0,0,0,5.0506,5.0507,5.0577,5.0577,5.0506,5.0513,5.0513,5.0534,5.0525,5.052,5.0501,5.0494,5.0509,5.0512,5.0516,5.0631,5.051,5.0513,5.0515,5.0746,5.0751,5.0755,0,0,0,0,0,0,5.0504,5.0513,5.0576,5.054,5.0546,5.0518,5.0543,5.0536,5.0547,5.0524,5.0518,5.0519,5.0506,5.0511,5.0574,5.063,5.0515,5.0518,5.0741,5.0747,5.0753,5.0862,0,0,0,0,0,0,5.0502,5.0513,5.0551,5.0542,5.0549,5.0635,5.0546,5.0539,5.0554,5.0544,5.0538,5.0534,5.0504,5.0569,5.0578,5.0633,5.0521,5.0736,5.0744,5.0751,5.0853,5.0871,5.0886,0,0,0,0,0,5.0499,5.0581,5.0554,5.0563,5.0596,5.0639,5.0643,5.0607,5.0559,5.0596,5.0581,5.0534,5.0623,5.0577,5.0586,5.0643,5.0732,5.0742,5.075,5.0846,5.0868,5.0886,0,0,0,0,0,0,5.0598,5.0579,5.0549,5.0631,5.0637,5.0623,5.0669,5.0631,5.0651,5.0641,5.0594,5.0594,5.0665,5.066,5.0609,5.0738,5.0669,5.068,5.0738,5.0759,5.0775,5.0775,5.0524,0,0,0,0,0,5.0629,5.0666,5.0648,5.0722,5.0727,5.0698,5.0715,5.0687,5.0692,5.0694,5.0683,5.0689,5.0718,5.0738,5.0763,5.0852,5.0849,5.0896,5.0912,5.0926,5.0936,5.0982,5.1003,5.0785,5.0785,5.0785,0,0,5.0694,5.0689,5.0715,5.0742,5.0744,5.0782,5.0701,5.0745,5.0773,5.07,5.0759,5.0752,5.0755,5.0832,5.0865,5.083,5.0996,5.0937,5.0948,5.0951,5.0994,5.1014,5.1033,5.0791,5.079,5.0789,0,0,5.0833,5.0833,5.0894,5.0898,5.0901,5.0881,5.0896,5.0888,5.0881,5.094,5.0885,5.0917,5.0968,5.0973,5.0982,5.1121,5.1078,5.1131,5.1217,5.1262,5.1279,5.1294,5.1344,5.1362,5.1141,5.1141,5.1141,0,5.0913,5.097,5.0931,5.0979,5.0992,5.0928,5.0989,5.0994,5.1006,5.1016,5.0976,5.1039,5.1036,5.1113,5.1147,5.1156,5.1171,5.1131,5.128,5.1295,5.1308,5.1355,5.1374,5.1148,5.1147,5.1146,5.1146,0,5.1069,5.1109,5.1158,5.1172,5.119,5.1245,5.1212,5.1235,5.1205,5.1189,5.125,5.1244,5.1267,5.1283,5.1254,5.1356,5.1334,5.1288,5.1218,5.1336,5.1379,5.1397,5.1157,5.1154,5.1152,5.1151,0,0,5.127,5.1261,5.128,5.1285,5.1284,5.1313,5.1365,5.1387,5.1408,5.1418,5.1459,5.1504,5.1461,5.1472,5.1442,5.1482,5.1593,5.1431,5.1431,5.1462,5.1704,5.1738,5.176,5.1564,5.1567,5.157,5.1703,0,5.1405,5.1493,5.1458,5.1549,5.1585,5.1524,5.1568,5.1572,5.1558,5.1586,5.157,5.1603,5.1544,5.155,5.1587,5.1572,5.1641,5.1561,5.1602,5.1604,5.1603,5.1782,5.1819,5.1945,5.172,5.1723,5.1725,0,5.1574,5.1592,5.1686,5.1678,5.1692,5.1733,5.175,5.1778,5.1781,5.1768,5.1779,5.1741,5.1789,5.172,5.1786,5.1733,5.1747,5.1742,5.1746,5.1749,5.1672,5.179,5.1985,5.2004,5.1751,5.1749,5.1747,0,5.1712,5.1759,5.1821,5.1827,5.1819,5.1849,5.1847,5.1846,5.1862,5.1877,5.1887,5.1908,5.1919,5.1936,5.1904,5.1856,5.1975,5.1902,5.1965,5.1966,5.1993,5.1992,5.2193,5.2002,5.2002,5.2001,5.2001,0,5.1866,5.1926,5.1882,5.1921,5.1986,5.1945,5.201,5.2001,5.2001,5.2035,5.1984,5.2017,5.1973,5.2002,5.1978,5.2036,5.2042,5.2032,5.2025,5.2037,5.2038,5.2046,5.2036,5.2006,5.2005,5.2004,5.2004,0,5.2031,5.2004,5.2068,5.2055,5.2053,5.2102,5.2091,5.2125,5.2107,5.2152,5.216,5.2133,5.2164,5.2134,5.2164,5.2147,5.2226,5.2205,5.2225,5.2219,5.2284,5.2278,5.2497,5.2524,5.2316,5.2318,5.232,0,5.2131,5.2176,5.2168,5.2188,5.219,5.2222,5.2238,5.2199,5.2218,5.2224,5.2257,5.2285,5.2305,5.2358,5.234,5.2363,5.2343,5.2418,5.2346,5.2357,5.2344,5.2342,5.2346,5.2433,5.2435,5.2437,5.2439,0,5.2312,5.2297,5.2322,5.2343,5.2363,5.2377,5.2387,5.2406,5.2366,5.2389,5.2421,5.2437,5.2467,5.2495,5.2512,5.2509,5.2468,5.2462,5.2477,5.249,5.25,5.2496,5.2265,5.2457,5.2455,5.2454,5.2453,5.2452,5.2448,5.2485,5.2485,5.2514,5.2518,5.2528,5.256,5.2546,5.2572,5.2595,5.257,5.2609,5.2609,5.2628,5.263,5.2659,5.2628,5.265,5.2656,5.2663,5.2672,5.2495,5.2662,5.2662,5.2661,5.2661,5.266,0,5.2626,5.2623,5.2651,5.2666,5.269,5.2648,5.2657,5.2679,5.2715,5.2719,5.2739,5.2776,5.2802,5.2787,5.2809,5.2836,5.2818,5.2843,5.2841,5.2841,5.2699,5.2683,5.2858,5.2858,5.2858,5.2858,5.2858,5.2858,5.2721,5.2781,5.2766,5.2826,5.2822,5.2861,5.2869,5.2878,5.2881,5.2925,5.2947,5.2936,5.2932,5.2954,5.2976,5.2971,5.2982,5.3015,5.3003,5.287,5.2851,5.2832,5.2817,5.3017,5.3018,5.3142,5.3143,5.3144]}]]